When you browse on this site, cookies collect data to enhance your experience and personalize the content and advertising you see.
Visit our Privacy Policy to learn more. By continuing to use the site, you agree to this use of cookies and data.
  • In Spain
  • List of Countries
  • For 7 days
  • Water Temperature
  • Satellite Maps
  • Weather Map
  • Weather Widgets
  • user-avatar
    Login

    Hourly Weather Ali Bayramli

    Today, 20 April, Saturday

    Time Temperature Precipitation Wind Pressure Humidity
    00:00 +5°C° 0.2 mm 9 mps 762 mmHg 70%
    01:00 +5°C° 0.3 mm 9 mps 762 mmHg 71%
    02:00 +5°C° 0.3 mm 9 mps 762 mmHg 71%
    03:00 +3°C° 0 mm 10 mps 761 mmHg 70%
    04:00 +3°C° 0.9 mm 10 mps 761 mmHg 71%
    05:00 +3°C° 0.9 mm 10 mps 761 mmHg 72%
    06:00 +3°C° 0.9 mm 10 mps 761 mmHg 73%
    07:00 +5°C° 0.3 mm 9 mps 761 mmHg 72%
    08:00 +5°C° 0.3 mm 8 mps 761 mmHg 71%
    09:00 +6°C° 0 mm 7 mps 761 mmHg 67%
    10:00 +8°C° 0.1 mm 7 mps 762 mmHg 63%
    11:00 +9°C° 0.1 mm 7 mps 762 mmHg 58%
    12:00 +10°C° 0.1 mm 7 mps 762 mmHg 54%
    13:00 +10°C° 0 mm 7 mps 762 mmHg 52%
    14:00 +10°C° 0 mm 6 mps 762 mmHg 51%
    15:00 +10°C° 0 mm 6 mps 763 mmHg 49%
    16:00 +10°C° 0 mm 6 mps 763 mmHg 52%
    17:00 +9°C° 0 mm 5 mps 763 mmHg 55%
    18:00 +10°C° 0 mm 4 mps 763 mmHg 57%
    19:00 +8°C° 0 mm 4 mps 764 mmHg 59%
    20:00 +8°C° 0 mm 4 mps 764 mmHg 62%
    21:00 +7°C° 0 mm 4 mps 764 mmHg 64%
    22:00 +7°C° 0 mm 4 mps 764 mmHg 65%
    23:00 +7°C° 0 mm 3 mps 764 mmHg 66%

    Tomorrow, 21 April, Sunday

    Time Temperature Precipitation Wind Pressure Humidity
    00:00 +7°C° 0 mm 3 mps 764 mmHg 68%
    01:00 +6°C° 0 mm 2 mps 764 mmHg 69%
    02:00 +6°C° 0 mm 2 mps 764 mmHg 71%
    03:00 +6°C° 0 mm 2 mps 764 mmHg 72%
    04:00 +7°C° 0 mm 1 mps 764 mmHg 72%
    05:00 +7°C° 0 mm 1 mps 764 mmHg 72%
    06:00 +7°C° 0 mm 1 mps 764 mmHg 71%
    07:00 +7°C° 0 mm 2 mps 764 mmHg 65%
    08:00 +9°C° 0 mm 2 mps 764 mmHg 59%
    09:00 +10°C° 0 mm 3 mps 764 mmHg 53%
    10:00 +11°C° 0 mm 3 mps 764 mmHg 50%
    11:00 +12°C° 0 mm 4 mps 764 mmHg 46%
    12:00 +13°C° 0 mm 4 mps 764 mmHg 43%
    13:00 +13°C° 0 mm 5 mps 764 mmHg 44%
    14:00 +13°C° 0 mm 5 mps 764 mmHg 45%
    15:00 +13°C° 0 mm 6 mps 764 mmHg 46%
    16:00 +13°C° 0 mm 6 mps 764 mmHg 51%
    17:00 +11°C° 0 mm 6 mps 764 mmHg 56%
    18:00 +10°C° 0 mm 6 mps 764 mmHg 60%
    19:00 +9°C° 0 mm 5 mps 764 mmHg 65%
    20:00 +8°C° 0 mm 5 mps 764 mmHg 70%
    21:00 +8°C° 0 mm 4 mps 765 mmHg 74%
    22:00 +7°C° 0 mm 4 mps 765 mmHg 75%
    23:00 +8°C° 0 mm 3 mps 765 mmHg 76%

    Day after tomorrow, 22 April, Monday

    Time Temperature Precipitation Wind Pressure Humidity
    00:00 +8°C° 0 mm 3 mps 765 mmHg 77%
    01:00 +8°C° 0 mm 3 mps 764 mmHg 77%
    02:00 +7°C° 0 mm 3 mps 764 mmHg 76%
    03:00 +7°C° 0 mm 3 mps 764 mmHg 76%
    04:00 +7°C° 0 mm 3 mps 764 mmHg 73%
    05:00 +7°C° 0 mm 4 mps 764 mmHg 69%
    06:00 +7°C° 0 mm 4 mps 764 mmHg 66%
    07:00 +8°C° 0 mm 5 mps 764 mmHg 62%
    08:00 +9°C° 0 mm 6 mps 764 mmHg 58%
    09:00 +11°C° 0 mm 6 mps 764 mmHg 53%
    10:00 +11°C° 0 mm 7 mps 763 mmHg 52%
    11:00 +12°C° 0 mm 8 mps 763 mmHg 51%
    12:00 +12°C° 0 mm 8 mps 763 mmHg 50%
    13:00 +11°C° 0.1 mm 8 mps 763 mmHg 52%
    14:00 +11°C° 0.1 mm 9 mps 763 mmHg 53%
    15:00 +10°C° 0.1 mm 9 mps 762 mmHg 55%
    16:00 +10°C° 0.3 mm 8 mps 762 mmHg 56%
    17:00 +9°C° 0.3 mm 8 mps 763 mmHg 57%
    18:00 +9°C° 0.3 mm 8 mps 763 mmHg 59%
    19:00 +7°C° 0.5 mm 8 mps 763 mmHg 58%
    20:00 +7°C° 0.5 mm 8 mps 764 mmHg 57%
    21:00 +7°C° 0.5 mm 8 mps 764 mmHg 55%
    22:00 +8°C° 0.7 mm 7 mps 764 mmHg 58%
    23:00 +8°C° 0.7 mm 5 mps 764 mmHg 61%

    23 April, Tuesday

    Time Temperature Precipitation Wind Pressure Humidity
    00:00 +7°C° 0.7 mm 4 mps 764 mmHg 64%
    01:00 +7°C° 0.3 mm 4 mps 764 mmHg 70%
    02:00 +7°C° 0.3 mm 4 mps 764 mmHg 76%
    03:00 +6°C° 0.3 mm 4 mps 764 mmHg 82%
    04:00 +6°C° 0.3 mm 4 mps 765 mmHg 85%
    05:00 +6°C° 0.3 mm 4 mps 765 mmHg 87%
    06:00 +6°C° 0.3 mm 4 mps 765 mmHg 89%
    07:00 +7°C° 0.2 mm 4 mps 766 mmHg 85%
    08:00 +7°C° 0.2 mm 4 mps 766 mmHg 81%
    09:00 +8°C° 0.2 mm 4 mps 766 mmHg 78%
    10:00 +10°C° 0.1 mm 4 mps 767 mmHg 71%
    11:00 +11°C° 0.1 mm 3 mps 767 mmHg 65%
    12:00 +12°C° 0.1 mm 3 mps 767 mmHg 58%
    13:00 +13°C° 0.1 mm 3 mps 766 mmHg 54%
    14:00 +14°C° 0.1 mm 2 mps 766 mmHg 50%
    15:00 +15°C° 0.1 mm 1 mps 766 mmHg 47%
    16:00 +15°C° 0 mm 2 mps 766 mmHg 47%
    17:00 +14°C° 0 mm 2 mps 767 mmHg 48%
    18:00 +14°C° 0 mm 2 mps 767 mmHg 49%
    19:00 +13°C° 0 mm 2 mps 767 mmHg 53%
    20:00 +12°C° 0 mm 2 mps 768 mmHg 57%
    21:00 +10°C° 0 mm 2 mps 768 mmHg 61%
    22:00 +9°C° 0 mm 2 mps 768 mmHg 63%
    23:00 +9°C° 0 mm 2 mps 768 mmHg 65%

    24 April, Wednesday

    Time Temperature Precipitation Wind Pressure Humidity
    00:00 +9°C° 0 mm 1 mps 768 mmHg 67%
    01:00 +9°C° 0 mm 1 mps 768 mmHg 67%
    02:00 +9°C° 0 mm 1 mps 768 mmHg 67%
    03:00 +10°C° 0 mm 1 mps 768 mmHg 66%
    04:00 +10°C° 0 mm 1 mps 768 mmHg 66%
    05:00 +10°C° 0 mm 1 mps 768 mmHg 65%
    06:00 +10°C° 0 mm 1 mps 768 mmHg 65%
    07:00 +11°C° 0 mm 1 mps 769 mmHg 58%
    08:00 +13°C° 0 mm 1 mps 769 mmHg 52%
    09:00 +14°C° 0 mm 2 mps 769 mmHg 46%
    10:00 +14°C° 0 mm 1 mps 769 mmHg 43%
    11:00 +15°C° 0 mm 1 mps 769 mmHg 40%
    12:00 +16°C° 0 mm 1 mps 769 mmHg 38%
    13:00 +16°C° 0 mm 1 mps 768 mmHg 38%
    14:00 +17°C° 0 mm 2 mps 768 mmHg 38%
    15:00 +17°C° 0 mm 2 mps 768 mmHg 37%
    16:00 +16°C° 0.1 mm 3 mps 768 mmHg 40%
    17:00 +14°C° 0.1 mm 3 mps 768 mmHg 43%
    18:00 +14°C° 0.1 mm 4 mps 768 mmHg 45%
    19:00 +13°C° 0 mm 3 mps 768 mmHg 48%
    20:00 +13°C° 0 mm 2 mps 769 mmHg 51%
    21:00 +12°C° 0 mm 2 mps 769 mmHg 54%
    22:00 +12°C° 0 mm 1 mps 769 mmHg 57%
    23:00 +11°C° 0 mm 1 mps 769 mmHg 59%

    25 April, Thursday

    Time Temperature Precipitation Wind Pressure Humidity
    00:00 +11°C° 0 mm 1 mps 768 mmHg 62%
    01:00 +10°C° 0 mm 1 mps 768 mmHg 64%
    02:00 +10°C° 0 mm 1 mps 768 mmHg 66%
    03:00 +9°C° 0 mm 1 mps 768 mmHg 68%
    04:00 +10°C° 0 mm 1 mps 768 mmHg 67%
    05:00 +10°C° 0 mm 1 mps 768 mmHg 65%
    06:00 +11°C° 0 mm 1 mps 768 mmHg 64%
    07:00 +12°C° 0 mm 1 mps 769 mmHg 55%
    08:00 +14°C° 0 mm 1 mps 769 mmHg 47%
    09:00 +15°C° 0 mm 2 mps 769 mmHg 39%
    10:00 +16°C° 0 mm 1 mps 769 mmHg 36%
    11:00 +18°C° 0 mm 1 mps 769 mmHg 34%
    12:00 +19°C° 0 mm 1 mps 768 mmHg 31%
    13:00 +18°C° 0 mm 2 mps 768 mmHg 32%
    14:00 +18°C° 0 mm 3 mps 768 mmHg 32%
    15:00 +19°C° 0 mm 4 mps 768 mmHg 33%
    16:00 +17°C° 0 mm 5 mps 768 mmHg 37%
    17:00 +15°C° 0 mm 5 mps 768 mmHg 42%
    18:00 +14°C° 0 mm 6 mps 768 mmHg 46%
    19:00 +13°C° 0 mm 5 mps 768 mmHg 50%
    20:00 +12°C° 0 mm 4 mps 768 mmHg 55%
    21:00 +11°C° 0 mm 3 mps 769 mmHg 60%
    22:00 +12°C° 0 mm 2 mps 769 mmHg 62%
    23:00 +11°C° 0 mm 1 mps 768 mmHg 65%
    Show more